COSMOS 2251 DEB, 36005

Orbit data source: Space-Track

COSMOS 2251 DEB, 36005 is space debris in LEO originally from a launch on Wed, 16 Jun 1993 UTC launched from the Plesetsk Missile And Space Complex (PKMTR). The debris from Iridium 33, an American commercial communications satellite, has been tracked extensively since its accidental collision with the defunct Russian satellite Cosmos 2251 in 2009. This event, occurring at high speed in low Earth orbit (LEO), generated thousands of pieces of space debris, significantly increasing the risk of further collisions. The Iridium 33 debris cloud has impacted space traffic management and orbital debris mitigation strategies, making it a subject of ongoing study in space situational awareness.

Loading next visibility...
Identifier
36005, 1993-036AWX
Orbit
LEO
Country
Flag of CISCIS
Related business
Manufacturer
Unknown
Mission
Spacecraft
Bus & Motor
Unknown
Mass
Unknown
Launch date (UTC)
1993-06-16 (33 years ago)
Launch vehicle
Unknown
Launch site
Plesetsk Missile And Space Complex (PKMTR)
Object type
Payload
Rocket body
Debris
Shape & HBR
Unknown shape, 0.1 m
Radar Cross Section
Medium (>0.1 m² and <1 m²)

Expand to show TLE details & history
Last TLE update: 2 days ago

TLE from 2 days ago
0 COSMOS 2251 DEB
1 36005U 93036AWX 26262.80468761  .00000264  00000-0  77649-4 0  9992
2 36005  74.0251 287.9812 0061147 354.0192   6.0229 14.47646521916516
Epoch: 2026-09-19T19:18Z
TLE epoch observation values (Epoch: 2026-09-19T19:18:45.009Z)
Latitude
-0.00002°
Longitude
-0.4143°
Altitude
692.721 km
Speed
7.533 km/s
True Right ascension
19h 11m 55s
True Declination
0° 00' 00"
Sunlit
Object was in daylight at epoch
Visualization orbit readout
Latitude
Unknown
Longitude
Unknown
Altitude
Unknown
Speed
Unknown
Apparent Right ascension
Unknown
Apparent Declination
Unknown
Sunlit
N/A
Visualization observer readout
Local Sidereal Time
19:59:19
Azimuth
Unknown
Elevation
Unknown
Doppler factor
Unknown
Orbital elements
Apogee altitude
774.428 km
Perigee altitude
687.488 km
Semi-major axis
7,109.095 km
Eccentricity
0.00611
Inclination
74.0251°
RAAN
287.9812°
Arg. of periapsis
354.0192°
True anomaly
6.09698°
Mean anomaly
6.0229°
Eccentric anomaly
6.05989°
Mean motion
3.62094 °/min
Orbital period
99.42 mins
BSTAR
0.000077649

Documentation

Showing up to 5 results
|